Welcome to mirrors.dotsrc.org

All our mirrors of open source software are available via http, https, ftp and an onion service. More information about our mirrors including statistics and contact information is available on our mirror info pages.

For information about dotsrc.org and our other services please go to our website.

Index of /mirrors/mirrors/ubuntu/pool/universe/m/

File Name  ↓ File Size  ↓ Date  ↓ 
Parent directory/--
moblin-menus/-2009-12-05 23:04:59
mova/-2011-09-15 14:01:50
movixmaker-2/-2011-09-20 05:40:03
msnlib/-2012-01-09 11:04:38
multipartposthandler/-2012-01-09 11:04:38
modello-maven-plugin1.4/-2012-01-09 16:34:37
magictouch/-2012-02-05 22:33:46
mttroff/-2012-02-18 18:33:48
multitet/-2012-02-18 19:03:35
mboxcheck/-2012-05-01 11:04:06
mysql-mmm/-2012-05-01 11:35:49
munin-plugins-openstack/-2012-07-02 16:04:29
mythbuntu-diskless/-2012-08-02 15:04:53
mythnettv/-2014-01-27 17:04:10
memphis/-2014-02-19 10:08:51
mic2/-2014-02-19 10:28:43
maas-test/-2014-04-10 18:42:53
mate-dialogs/-2014-05-21 12:37:20
mythbuntu-lightdm-theme/-2015-04-26 12:10:33
monogame/-2015-04-27 15:55:28
mirror.js/-2015-04-27 15:55:30
mana/-2015-04-27 15:55:35
memoise/-2015-04-28 17:59:06
media-ctl/-2015-04-28 17:59:06
mate-doc-utils/-2015-04-28 17:59:08
maliit-plugins/-2015-04-28 17:59:10
mediascanner/-2015-04-28 18:03:15
mythbuntu-gdm-theme/-2015-04-30 13:19:47
musiclibrarian/-2015-04-30 13:19:47
mingw32-runtime/-2015-04-30 13:19:48
mozart-stdlib/-2015-04-30 13:19:48
minirok/-2015-04-30 13:19:48
mffm-timecode/-2015-04-30 13:19:48
mgm/-2015-04-30 13:19:48
moodle-debian-edu-theme/-2015-04-30 13:19:48
mailplate/-2015-04-30 13:19:49
malbolge/-2015-04-30 13:19:49
macchanger-gtk/-2015-04-30 13:19:49
metainit/-2015-04-30 13:21:00
mnemosyne-blog/-2015-06-15 05:23:44
modello1.4/-2015-07-13 18:16:46
maven-compiler-plugin-2.5/-2015-07-26 06:14:26
mopidy-youtube/-2015-08-09 06:18:57
mopidy-podcast-gpodder/-2015-10-24 10:30:13
maven-ant-tasks/-2015-11-17 05:44:59
mango-lassi/-2015-12-04 10:31:46
mod-authnz-persona/-2015-12-04 11:26:12
msgpack/-2015-12-04 11:56:13
musique/-2015-12-04 11:56:26
mangonel/-2015-12-05 01:05:27
mariadb-client-lgpl/-2015-12-05 01:05:28
mmsd/-2015-12-05 01:47:14
mnemonicode/-2015-12-05 01:47:15
mooproxy/-2015-12-05 01:47:16
music-hub/-2015-12-05 01:47:30
maptransfer/-2015-12-13 23:49:22
myghty/-2015-12-13 23:49:26
mate-accountsdialog/-2015-12-28 14:14:27
mailping/-2016-01-17 16:39:09
mmtk/-2016-02-11 19:00:01
modestmaps-js/-2016-05-06 23:24:37
minetest-mod-mobf/-2016-06-12 23:34:43
mauve/-2016-10-31 12:14:49
myghtyutils/-2016-10-31 12:45:41
micro-proxy/-2016-10-31 12:45:42
makejvf/-2016-10-31 12:45:43
minit/-2016-10-31 13:22:45
mythnettv-gui/-2016-11-01 01:06:56
mtpfs/-2016-11-01 01:06:58
multiget/-2016-11-01 01:06:58
mrtg-rrd/-2016-11-01 01:06:58
mpage/-2016-11-01 01:07:12
mozart/-2016-11-01 01:07:15
monkeytail/-2016-11-01 01:07:21
mixal/-2016-11-01 01:07:23
memaker/-2016-11-01 01:07:27
mce-dev/-2016-11-01 01:07:30
manpages-es/-2016-11-01 01:07:32
mach/-2016-11-01 01:07:37
mod-spamhaus/-2016-11-01 01:14:18
mythbuntu-lirc-generator/-2016-11-01 08:06:33
mythbuntu-log-grabber/-2016-11-01 08:06:33
mysql-proxy/-2016-11-01 08:06:34
mr/-2016-11-01 08:06:37
msn-pecan/-2016-11-01 08:06:37
movabletype-opensource/-2016-11-01 08:06:38
mp/-2016-11-01 08:06:38
monodevelop-debugger-gdb/-2016-11-01 08:06:43
monobristol/-2016-11-01 08:06:43
monkey-bubble/-2016-11-01 08:06:43
mingw32-binutils/-2016-11-01 08:06:46
mingw32/-2016-11-01 08:06:46
micro-inetd/-2016-11-01 08:06:46
md5deep/-2016-11-01 08:06:48
mathwar/-2016-11-01 08:06:49
manpages-fr/-2016-11-01 08:06:50
magicor/-2016-11-01 08:06:51
mysql-connector-net/-2016-11-01 08:11:38
myodbc/-2016-11-01 08:11:38
mono-uia/-2016-11-01 08:11:48
module-build-cipux/-2016-11-01 08:11:49
matrixssl/-2016-11-01 08:11:53
maven-docck-plugin/-2016-11-01 08:11:53
maven-embedder/-2016-11-01 08:11:53
maven-ear-plugin/-2016-11-01 08:11:53
mochikit/-2016-11-01 08:12:14
mythbuntu-control-centre/-2016-11-01 13:09:36
mythbuntu-default-settings/-2016-11-01 13:09:36
muddleftpd/-2016-11-01 13:09:39
mago/-2016-11-01 13:09:53
mistelix/-2016-11-02 07:12:28
mono-reference-assemblies/-2016-11-02 12:41:51
mozplugger/-2016-11-02 12:49:20
minetest-mod-animalmaterials/-2016-11-02 22:22:03
mozjs17/-2016-11-03 19:02:10
moksha.hub/-2017-01-13 05:13:23
mendexk/-2017-02-20 12:18:59
mozvoikko/-2017-02-24 06:18:39
mythbuntu-bare/-2017-04-01 06:15:55
migration-assistant/-2017-04-06 06:43:52
maximus/-2017-04-06 06:43:53
mod-authn-webid/-2017-04-06 06:44:16
mensis/-2017-06-16 00:17:26
maven-file-management/-2017-07-19 23:13:31
maven-antrun-extended-plugin/-2017-07-28 23:23:45
munge-maven-plugin/-2017-08-01 05:29:22
mailman-api/-2017-08-24 05:13:37
maven-shared-jar/-2017-09-07 18:15:32
mockobjects/-2017-11-02 23:14:16
monajat/-2017-11-03 01:23:58
moxie.js/-2017-12-31 05:56:43
museek+/-2018-01-19 09:22:23
msrtool/-2018-01-19 09:22:24
mopd/-2018-01-19 09:22:26
monav/-2018-01-19 09:22:27
medit/-2018-01-19 09:22:33
me-tv/-2018-01-19 09:22:34
mailcrypt/-2018-01-19 09:22:42
minc/-2018-01-19 09:24:17
mythbuntu-live-autostart/-2018-01-22 08:45:15
mutt-kz/-2018-01-22 08:45:20
mumble-django/-2018-01-22 08:45:22
mtasc/-2018-01-22 08:45:23
mstflint4/-2018-01-22 08:45:23
mplayerthumbs/-2018-01-22 08:45:24
mplayer2/-2018-01-22 08:45:24
mp3splt-gtk/-2018-01-22 08:45:27
mozilla-password-editor/-2018-01-22 08:45:27
morituri/-2018-01-22 08:45:28
moodbar/-2018-01-22 08:45:28
moodle/-2018-01-22 08:45:28
monodevelop-database/-2018-01-22 08:45:29
monotone-viz/-2018-01-22 08:45:29
monodevelop/-2018-01-22 08:45:29
miro/-2018-01-22 08:45:32
minbar/-2018-01-22 08:45:34
mediawiki-extensions/-2018-01-22 08:45:38
mdpress/-2018-01-22 08:45:38
maven2/-2018-01-22 08:45:40
mate-netspeed/-2018-01-22 08:45:41
mysql-5.6/-2018-01-22 08:48:08
mule/-2018-01-22 08:48:11
mmpong/-2018-01-22 08:48:17
mathcomp/-2018-01-22 08:48:21
maven-stapler-plugin/-2018-01-22 08:48:21
maven-project-info-reports-plugin/-2018-01-22 08:48:21
maven-hpi-plugin/-2018-01-22 08:48:21
mummy/-2018-01-22 08:48:38
midgard2-core/-2018-01-22 08:51:40
m17n-db/-2018-01-22 18:17:38
mythbuntu-common/-2018-01-23 08:50:04
monotone/-2018-01-23 08:50:26
mmass/-2018-01-23 08:50:30
mkdocs-bootswatch/-2018-01-23 08:50:32
mdbus/-2018-01-23 08:50:46
mcmcpack/-2018-01-23 08:50:47
mandelbulber/-2018-01-23 08:50:59
maitreya/-2018-01-23 08:51:02
ming/-2018-01-23 08:56:53
mgrs/-2018-01-23 08:57:57
mx/-2018-01-23 09:11:41
memleax/-2018-01-31 09:20:00
measurement-kit/-2018-02-10 00:21:26
mkelfimage/-2018-04-05 08:04:19
mumudvb/-2018-04-05 08:04:55
mxallowd/-2018-04-05 09:25:39
mythtvfs-fuse/-2018-04-05 09:25:39
mlbviewer/-2018-04-07 06:15:28
mythexport/-2018-04-20 01:58:34
myspell-hr/-2018-04-20 07:58:57
messaging-app/-2018-06-22 15:12:53
mock/-2018-06-22 15:12:53
mediaplayer-app/-2018-06-22 15:12:53
musixtex/-2018-06-22 15:12:53
matita/-2018-06-22 15:12:53
memcachedb/-2018-06-22 15:12:53
m-tx/-2018-06-22 15:12:54
mtp/-2018-06-22 15:13:01
mp4v2/-2018-06-22 15:13:02
myrepos/-2018-07-26 11:18:22
modulator/-2018-09-19 17:58:19
magicmaze/-2018-11-09 11:34:08
mason/-2018-11-09 11:34:10
mokutil/-2018-11-22 00:23:45
mpj/-2019-01-13 17:18:49
minify-maven-plugin/-2019-01-13 23:18:34
mp4parser/-2019-01-23 19:12:09
mac-widgets/-2019-01-30 05:18:20
meta-gnustep/-2019-02-07 08:08:34
mariadb-10.0/-2019-02-13 06:20:42
morfologik-stemming/-2019-02-28 07:23:37
mavibot/-2019-03-09 08:13:19
msv/-2019-03-09 08:18:18
mat/-2019-04-05 00:41:07
mariadb-5.5/-2019-05-25 00:13:22
modello-maven-plugin/-2019-07-09 13:38:41
manpages-pl/-2019-08-04 17:24:19
mh-e/-2019-10-02 00:19:17
mercurial-crecord/-2019-10-25 22:50:45
multex-base/-2019-10-25 22:50:53
maven-replacer-plugin/-2019-10-26 01:54:47
mueller/-2019-12-22 00:15:51
mandrill/-2020-01-11 19:08:50
mocker/-2020-01-11 19:08:50
moosic/-2020-01-11 19:08:53
model-builder/-2020-01-14 18:40:00
mysql-utilities/-2020-01-15 00:16:17
mopidy-gmusic/-2020-01-23 00:19:31
mercurial-server/-2020-03-30 18:34:43
mimms/-2020-03-31 18:34:32
mpris-remote/-2020-03-31 18:34:32
ministat/-2020-04-02 18:09:16
midicsv/-2020-04-02 18:09:17
mpt-status/-2020-04-02 18:09:18
mixer.app/-2020-04-02 18:09:20
mppenc/-2020-04-02 18:09:20
mutextrace/-2020-04-02 18:23:52
multitee/-2020-04-02 18:23:52
minizip/-2020-04-02 18:23:54
mancala/-2020-04-03 03:53:49
multiwatch/-2020-04-03 04:08:43
mimelib1/-2020-04-03 04:58:41
madwimax/-2020-04-03 06:13:34
maas-enlist/-2020-04-03 09:44:18
memstat/-2020-04-03 10:13:54
mergelog/-2020-04-03 10:13:57
minisat+/-2020-04-03 10:14:27
mpgtx/-2020-04-03 10:28:53
msgpuck/-2020-04-03 10:43:36
mpeg2dec/-2020-04-03 10:43:38
msi-keyboard/-2020-04-03 10:58:28
mtbl/-2020-04-03 10:58:30
myspell/-2020-04-03 10:58:34
mswatch/-2020-04-03 10:58:37
mz/-2020-04-04 14:23:25
mod-proxy-msrpc/-2020-04-04 15:08:44
mountpy/-2020-04-05 07:33:33
ministocks/-2020-04-05 11:43:37
mod-authz-securepass/-2020-04-06 01:28:23
mod-gnutls/-2020-04-06 01:43:26
mousetrap/-2020-04-06 03:53:23
minbif/-2020-04-07 11:08:19
miceamaze/-2020-04-13 16:53:32
metacity-themes/-2020-04-27 21:14:21
manpages-fr-extra/-2020-04-27 21:15:08
multistrap/-2020-04-27 21:15:39
mp3cd/-2020-04-27 21:15:39
minetest-mod-xdecor/-2020-04-28 00:26:21
munin-libvirt-plugins/-2020-04-28 00:26:24
maloc/-2020-04-28 01:34:51
mcron/-2020-04-28 01:43:45
mudita24/-2020-04-28 02:21:27
mailtextbody/-2020-05-02 23:33:23
miwm/-2020-05-17 06:14:40
mpg123-el/-2020-05-21 00:14:12
mailagent/-2020-05-22 03:28:18
matchbox/-2020-06-23 05:28:50
matchbox-common/-2020-06-23 05:28:53
matchbox-themes-extra/-2020-06-23 05:28:53
mcu8051ide/-2020-07-08 23:24:01
mtd-utils/-2020-07-10 21:51:19
mrxvt/-2020-07-10 21:51:19
molds/-2020-07-10 21:51:20
mirmon/-2020-07-10 21:51:20
mixmaster/-2020-07-10 21:51:20
mon/-2020-07-10 21:51:20
monkeystudio/-2020-07-10 21:51:20
mon-contrib/-2020-07-10 21:51:20
metaphlan2-data/-2020-07-10 21:51:21
mediatomb/-2020-07-10 21:51:21
matchit/-2020-07-10 21:51:22
mcrl2/-2020-07-10 21:51:22
matanza/-2020-07-10 21:51:22
mate-icon-theme-faenza/-2020-07-10 21:51:22
mathpartir/-2020-07-10 21:51:22
mcelog/-2020-07-10 21:51:22
mail-notification/-2020-07-10 21:51:23
maildir-filter/-2020-07-10 21:51:23
m2ext/-2020-07-10 21:51:23
mysql-connector-java/-2020-07-10 21:51:43
mozjs/-2020-07-10 21:51:44
mozjs38/-2020-07-10 21:51:44
media-hub/-2020-07-10 21:51:44
mozjs24/-2020-07-10 21:51:44
maven-bundle-plugin/-2020-07-10 21:51:45
maven2-core/-2020-07-10 21:51:45
maven-repository-builder/-2020-07-10 21:51:45
maven-indexer/-2020-07-10 21:51:45
mojarra/-2020-07-10 21:51:48
m2vrequantiser/-2020-07-12 00:15:10
minetest-mod-animals/-2020-07-13 08:50:02
mecab-naist-jdic/-2020-07-13 08:50:02
mpi-testsuite/-2020-07-13 08:50:02
minetest-mod-advspawning/-2020-07-13 08:50:02
mecab-jumandic/-2020-07-13 08:50:02
mediawiki-math/-2020-07-13 08:50:02
minetest-mod-mobf-core/-2020-07-13 08:50:02
mariadb-connector-c/-2020-07-13 08:50:18
mongo-java-driver/-2020-07-13 08:50:18
migrate/-2020-07-14 14:43:57
mwc/-2020-07-14 14:44:05
musica/-2020-07-14 14:44:05
mlbstreamer/-2020-07-14 14:44:06
monkeysign/-2020-07-14 14:44:06
modestmaps-py/-2020-07-14 14:44:06
mipp/-2020-07-14 14:44:06
mosquitto-auth-plugin/-2020-07-14 14:44:06
minetest-mod-torches/-2020-07-14 14:44:06
mecab-ipadic/-2020-07-14 14:44:07
megadown/-2020-07-14 14:44:07
mapbox-vector-tile/-2020-07-14 14:44:07
mono-basic/-2020-07-14 14:44:22
modello/-2020-07-14 14:44:22
mingw-ocaml/-2020-07-14 14:44:48
magithub/-2020-07-14 14:44:51
mmorph/-2020-07-27 18:23:45
mpc123/-2020-07-28 12:21:37
mercantile/-2020-08-06 15:43:45
mapbox-geometry/-2020-08-07 00:13:53
mcpdisp/-2020-08-11 16:38:45
mencal/-2020-08-15 12:14:17
mathjax/-2020-08-29 12:14:22
mongo-tools/-2020-09-14 12:15:16
meliae/-2020-10-10 00:14:11
mimefilter/-2020-10-28 23:30:03
mkdocs-bootstrap/-2020-10-28 23:38:55
mqtt-client/-2020-10-28 23:39:06
mpl-scatter-density/-2020-10-28 23:43:50
morfologik-stemming2/-2020-10-29 07:37:04
m4api/-2020-10-29 17:10:02
mojoshader/-2020-10-30 00:14:11
morfessor/-2020-10-31 18:15:11
misery/-2020-11-02 13:43:40
mediaelement/-2020-11-11 03:03:44
message-templ/-2020-11-18 05:28:46
mhap/-2020-11-26 05:23:53
melting/-2020-11-30 05:24:19
mutt-alias-el/-2020-12-08 23:34:46
muttrc-mode-el/-2020-12-08 23:34:50
menu-cache/-2020-12-09 11:54:48
multiboot/-2020-12-26 23:45:48
mootools/-2020-12-27 05:25:03
mypaint-brushes/-2020-12-29 23:34:23
mididings/-2020-12-29 23:34:23
mpdas/-2020-12-29 23:34:23
makejail/-2020-12-29 23:34:23
mairix/-2020-12-29 23:34:23
mobyle-tutorials/-2020-12-29 23:34:23
mpdcron/-2020-12-29 23:34:23
moria/-2020-12-29 23:34:23
mobyle/-2020-12-29 23:34:23
multitime/-2020-12-29 23:34:23
maybe/-2020-12-29 23:34:23
mbtserver/-2020-12-29 23:34:23
mxt-app/-2020-12-29 23:34:23
munin-c/-2020-12-29 23:34:23
mkcue/-2020-12-29 23:34:23
more-itertools/-2020-12-29 23:34:23
maq/-2020-12-29 23:34:23
mseed2sac/-2020-12-29 23:34:23
mldemos/-2020-12-29 23:34:23
manpages-de/-2020-12-29 23:34:23
metar/-2020-12-29 23:34:23
myhdl/-2020-12-29 23:34:23
moap/-2020-12-29 23:34:23
mopidy-alsamixer/-2020-12-29 23:34:23
montage-wrapper/-2020-12-29 23:34:23
mapnik-vector-tile/-2020-12-29 23:34:23
matchbox-panel/-2020-12-29 23:34:23
mpg321/-2020-12-29 23:34:23
myrescue/-2020-12-29 23:34:23
miredo/-2020-12-29 23:34:23
mdns-scan/-2020-12-29 23:34:23
multimon/-2020-12-29 23:34:23
martian/-2020-12-29 23:34:23
mlmmj/-2020-12-29 23:34:23
mokomaze/-2020-12-29 23:34:23
mdp-src/-2020-12-29 23:34:23
mhwaveedit/-2020-12-29 23:34:23
mobyle-programs/-2020-12-29 23:34:23
multicat/-2020-12-29 23:34:23
memtool/-2020-12-29 23:34:23
mrtrix/-2020-12-29 23:34:23
mdf2iso/-2020-12-29 23:34:23
magic-wormhole-transit-relay/-2020-12-29 23:34:23
mgp/-2020-12-29 23:34:23
missidentify/-2020-12-29 23:34:23
marionnet/-2020-12-29 23:34:23
mopidy-mpris/-2020-12-29 23:34:23
midori/-2020-12-29 23:34:23
mudlet/-2020-12-29 23:34:23
mopidy-local-sqlite/-2020-12-29 23:34:23
macfanctld/-2020-12-29 23:34:23
mpqc3/-2020-12-29 23:34:23
makehuman/-2020-12-29 23:34:23
mutatormath/-2020-12-29 23:34:23
makefs/-2020-12-29 23:34:23
mod-gearman/-2020-12-29 23:34:23
matroxset/-2020-12-29 23:34:23
mopidy-scrobbler/-2020-12-29 23:34:23
macchanger/-2020-12-29 23:34:23
mikmod/-2020-12-29 23:34:23
makebootfat/-2020-12-29 23:34:23
mp4h/-2020-12-29 23:34:23
mlv-smile/-2020-12-29 23:34:23
monsterz/-2020-12-29 23:34:23
mspdebug/-2020-12-29 23:34:23
maas/-2020-12-29 23:34:23
mgen/-2020-12-29 23:34:23
mopidy-dirble/-2020-12-29 23:34:23
mustang-plug/-2020-12-29 23:34:23
moserial/-2020-12-29 23:34:23
mrtdreader/-2020-12-29 23:34:30
mysql-connector-c++/-2020-12-29 23:34:30
mopac7/-2020-12-29 23:34:31
minpack/-2020-12-29 23:34:31
maxflow/-2020-12-29 23:34:31
mercator/-2020-12-29 23:34:31
mbt/-2020-12-29 23:34:31
mrmpi/-2020-12-29 23:34:31
mapbox-wagyu/-2020-12-29 23:34:31
modglue/-2020-12-29 23:34:31
mkl-dnn/-2020-12-29 23:34:31
meep-lam4/-2020-12-29 23:34:31
mcpp/-2020-12-29 23:34:31
metrohash/-2020-12-29 23:34:31
m17n-im-config/-2020-12-29 23:34:31
miaviewit/-2020-12-29 23:34:31
meep-mpich2/-2020-12-29 23:34:31
mpfit/-2020-12-29 23:34:45
meson-mode/-2020-12-29 23:34:47
mclibs/-2020-12-29 23:34:50
mp3gain/-2020-12-31 06:15:01
mocker-el/-2020-12-31 17:44:48
minlog/-2021-01-01 05:24:51
mathpiper/-2021-01-02 00:22:01
magyarispell/-2021-01-02 00:22:54
mugshot/-2021-01-02 06:13:22
mono-zeroconf/-2021-01-02 06:13:23
myspell-el-gr/-2021-01-02 06:13:24
minetest-mod-worldedit/-2021-01-03 00:27:32
monafont-ttf/-2021-01-03 00:27:32
megaglest-data/-2021-01-03 05:50:57
minetest-mod-intllib/-2021-01-03 17:47:02
mtkbabel/-2021-01-03 17:47:03
meritous/-2021-01-04 00:29:03
mussh/-2021-01-04 23:41:00
mon-client/-2021-01-04 23:41:00
mono-upnp/-2021-01-04 23:41:06
messagingmenu-sharp/-2021-01-04 23:41:14
mess-desktop-entries/-2021-01-05 00:06:03
msva-perl/-2021-01-05 02:13:55
m-buffer-el/-2021-01-07 00:26:29
math-numeric-tower-clojure/-2021-01-07 00:26:31
math-combinatorics-clojure/-2021-01-07 00:26:31
makepp/-2021-01-07 00:26:31
mono-debugger-libs/-2021-01-07 00:26:35
metrics-clojure/-2021-01-07 00:26:36
mono-fuse/-2021-01-07 00:27:53
mussort/-2021-01-08 00:43:02
micropolis-activity/-2021-01-09 12:03:46
mithril/-2021-01-09 17:30:11
mini-httpd-run/-2021-01-10 17:28:56
mustache-java/-2021-01-14 12:22:37
morse-x/-2021-01-16 05:53:53
mblaze/-2021-01-16 18:15:34
mono.reflection/-2021-01-17 23:34:41
mopidy-tunein/-2021-01-21 12:18:30
mypager/-2021-01-24 06:14:48
makey/-2021-01-25 11:23:46
monokai-emacs/-2021-01-25 11:23:46
memdump/-2021-02-01 05:48:46
metadata-json-lint/-2021-02-04 00:18:31
monkeysphere/-2021-02-04 15:58:46
mimetex/-2021-02-05 06:09:30
moblin-icon-theme/-2021-02-05 18:17:47
mozjs52/-2021-02-05 18:17:48
mplayer-blue/-2021-02-09 00:18:30
moblin-cursor-theme/-2021-02-17 18:14:43
magpierss/-2021-02-17 18:14:43
mrd6/-2021-02-17 18:14:43
man-pages-it/-2021-02-18 18:17:05
meschach/-2021-02-19 00:17:48
myspell-sk/-2021-02-19 18:43:56
masscan/-2021-02-21 00:26:19
mipe/-2021-02-23 06:16:51
mcollective-server-provisioner/-2021-03-02 23:29:11
maven-cache-cleanup/-2021-03-05 12:17:18
moblin-sound-theme/-2021-04-10 06:15:32
mutt/-2021-05-04 18:17:05
mysql-5.5/-2021-05-04 18:17:05
mariadb-10.1/-2021-05-13 00:15:53
mongodb/-2021-10-06 00:14:51
metche/-2021-10-19 04:05:51
maven-jflex-plugin/-2021-10-19 15:52:01
metastore/-2021-10-21 07:30:50
micro-httpd/-2021-10-21 07:30:51
mp3rename/-2021-10-21 07:30:59
molequeue/-2021-10-21 19:49:48
mona/-2021-10-23 11:39:08
mp3val/-2021-10-28 12:19:28
mckoisqldb/-2021-11-01 05:34:02
mailman/-2021-11-01 11:18:24
moonshot-ui/-2021-11-24 10:10:37
mallard-rng/-2021-12-06 03:04:04
minetest-mod-unifieddyes/-2021-12-06 06:16:06
mailavenger/-2021-12-09 00:15:53
mallard-ducktype/-2021-12-13 17:24:09
morla/-2021-12-18 06:04:00
musescore/-2021-12-23 02:57:40
mrs/-2021-12-23 02:57:40
mldonkey/-2021-12-23 02:57:41
mini-soong/-2021-12-23 02:57:41
merkleeyes/-2021-12-23 02:57:41
mdcfg/-2021-12-23 02:57:41
modus-themes/-2021-12-23 02:58:27
minimap-el/-2021-12-23 02:58:27
macutils/-2021-12-23 06:03:56
madplay/-2021-12-24 23:58:53
maelstrom/-2022-01-04 00:19:00
morse/-2022-01-06 05:34:02
mhddfs/-2022-01-07 05:29:38
mcrypt/-2022-01-14 06:23:05
morsegen/-2022-01-19 00:19:19
metastudent/-2022-01-20 17:29:22
moviepy/-2022-01-26 12:19:30
mysqmail/-2022-01-27 11:44:01
modplugtools/-2022-02-07 18:19:06
mmtf-java/-2022-02-07 18:19:06
metacam/-2022-02-23 06:19:08
mistune0/-2022-02-26 12:18:17
moblin-gtk-engine/-2022-03-09 23:33:54
mplinuxman/-2022-03-09 23:33:54
mojo-executor/-2022-04-30 08:02:57
mercurial-keyring/-2022-04-30 08:03:02
mercurial-extension-utils/-2022-04-30 08:03:03
mmake/-2022-04-30 08:03:03
mcaller/-2022-04-30 08:03:04
mgetty/-2022-04-30 16:45:59
mmdb/-2022-04-30 16:46:05
mpv-mpris/-2022-04-30 17:19:24
mrtgutils/-2022-04-30 17:19:24
muparser/-2022-04-30 17:34:49
mm/-2022-05-01 11:40:12
malaga/-2022-05-03 12:19:05
moksha.common/-2022-05-04 11:30:07
mysql-connector-python/-2022-05-04 11:30:08
modernize/-2022-05-04 11:30:10
mimerender/-2022-05-04 11:30:10
mrtparse/-2022-05-04 11:30:11
maven-jaxb2-plugin/-2022-05-05 06:19:26
mysqltcl/-2022-05-06 16:54:03
mini18n/-2022-05-06 23:39:07
mwic/-2022-05-13 07:21:39
mailfront/-2022-05-16 05:54:11
mondrian/-2022-05-17 17:34:56
markdown-mode/-2022-05-17 17:34:57
mopidy-podcast/-2022-05-18 17:44:34
mopidy-podcast-itunes/-2022-05-18 17:44:35
mopidy-internetarchive/-2022-05-18 17:44:36
mopidy-mpd/-2022-05-18 17:44:36
maven-repo-helper/-2022-05-23 17:24:52
mockito/-2022-05-24 23:24:23
munkres/-2022-05-26 21:54:05
mergedeep/-2022-05-29 18:18:44
mktorrent/-2022-06-01 17:54:02
motif/-2022-06-11 21:03:47
mono-addins/-2022-06-14 18:00:18
mazeofgalious/-2022-06-14 18:01:09
mffm-fftw/-2022-06-14 18:01:10
matthiasmullie-path-converter/-2022-06-14 18:20:38
menulibre/-2022-06-17 17:40:29
metainf-services/-2022-06-21 13:04:06
murphy-clojure/-2022-06-22 00:28:10
maven-shared-utils/-2022-06-23 03:29:02
makedepf90/-2022-06-24 01:44:16
mathjax-docs/-2022-07-01 05:44:50
mbdyn/-2022-07-07 01:49:47
mlton/-2022-07-07 23:04:10
materialize/-2022-07-08 01:00:49
massivethreads/-2022-07-09 06:22:02
m16c-flash/-2022-07-09 17:54:12
mssh/-2022-07-10 05:58:59
muon/-2022-07-12 14:10:20
mmtf-python/-2022-07-13 17:24:23
maim/-2022-07-13 18:19:57
maude/-2022-07-14 18:19:35
mygpoclient/-2022-07-22 11:38:54
mopidy-beets/-2022-07-23 08:03:34
mydumper/-2022-07-23 08:03:34
mobile-atlas-creator/-2022-07-23 08:03:34
monasca-statsd/-2022-07-23 08:03:34
metamath/-2022-07-23 08:03:35
mfoc/-2022-07-23 08:03:35
maven-resolver/-2022-07-23 08:03:35
matchbox-window-manager/-2022-07-23 08:03:35
mfcuk/-2022-07-23 08:03:35
matchbox-keyboard/-2022-07-23 08:03:35
metamath-databases/-2022-07-23 08:03:35
mariadb-10.5/-2022-07-24 01:06:03
mysql-workbench/-2022-07-24 03:42:19
mystiq/-2022-07-24 03:42:19
mwclient/-2022-07-24 03:42:20
monitoring-plugins-systemd/-2022-07-24 03:42:20
mongrel2/-2022-07-24 03:42:20
mopidy-local/-2022-07-24 03:42:20
movim/-2022-07-24 03:42:20
mpfi/-2022-07-24 03:42:20
myspell-sq/-2022-07-24 03:42:20
mysql++/-2022-07-24 03:42:20
moon-lander/-2022-07-24 03:42:20
mtdev/-2022-07-24 03:42:20
mocassin/-2022-07-24 03:42:20
mp3blaster/-2022-07-24 03:42:20
mnemosyne/-2022-07-24 03:42:20
mpgrafic/-2022-07-24 03:42:20
musescore-general-soundfont-small/-2022-07-24 03:42:20
musescore-general-soundfont/-2022-07-24 03:42:20
monopd/-2022-07-24 03:42:20
mopidy-somafm/-2022-07-24 03:42:20
musescore2/-2022-07-24 03:42:20
multitail/-2022-07-24 03:42:20
multiverse-core/-2022-07-24 03:42:20
mpmath/-2022-07-24 03:42:20
mma/-2022-07-24 03:42:20
muttprint/-2022-07-24 03:42:20
mptp/-2022-07-24 03:42:20
mpack/-2022-07-24 03:42:20
metastudent-data/-2022-07-24 03:42:21
menu-xdg/-2022-07-24 03:42:21
minetest-mod-moreblocks/-2022-07-24 03:42:21
minetest-mod-currency/-2022-07-24 03:42:21
metastudent-data-2/-2022-07-24 03:42:21
mbed-test-wrapper/-2022-07-24 03:42:21
mauve-aligner/-2022-07-24 03:42:21
mklibs/-2022-07-24 03:42:21
meanwhile/-2022-07-24 03:42:21
mate-optimus/-2022-07-24 03:42:21
minetest-mod-mesecons/-2022-07-24 03:42:21
migrationtools/-2022-07-24 03:42:21
metatheme-gilouche/-2022-07-24 03:42:21
minetest-mod-homedecor/-2022-07-24 03:42:21
microbiomeutil/-2022-07-24 03:42:21
minetest-mod-ethereal/-2022-07-24 03:42:21
minetest-mod-3d-armor/-2022-07-24 03:42:21
minetest-mod-craftguide/-2022-07-24 03:42:21
mknfonts.tool/-2022-07-24 03:42:21
medusa/-2022-07-24 03:42:21
mhonarc/-2022-07-24 03:42:21
md4c/-2022-07-24 03:42:21
minetest-mod-pipeworks/-2022-07-24 03:42:21
minetest-mod-basic-materials/-2022-07-24 03:42:21
mialmpick/-2022-07-24 03:42:21
mate-sensors-applet/-2022-07-24 03:42:21
mate-netbook/-2022-07-24 03:42:21
midisnoop/-2022-07-24 03:42:21
meshlab/-2022-07-24 03:42:21
minetest-mod-lucky-block/-2022-07-24 03:42:21
mdk/-2022-07-24 03:42:21
minetest-mod-quartz/-2022-07-24 03:42:21
mednaffe/-2022-07-24 03:42:21
minetest-mod-throwing/-2022-07-24 03:42:21
menu-l10n/-2022-07-24 03:42:21
minetest-mod-unified-inventory/-2022-07-24 03:42:21
materia-gtk-theme/-2022-07-24 03:42:21
mdevctl/-2022-07-24 03:42:21
mdocml/-2022-07-24 03:42:21
mate-user-share/-2022-07-24 03:42:21
misc3d/-2022-07-24 03:42:21
mikmatch/-2022-07-24 03:42:21
mate-window-applets/-2022-07-24 03:42:21
mcabber/-2022-07-24 03:42:21
minetest-mod-throwing-arrows/-2022-07-24 03:42:21
mkdepend/-2022-07-24 03:42:21
minetest-mod-mobs-redo/-2022-07-24 03:42:21
minetest-mod-moreores/-2022-07-24 03:42:21
maxima-sage/-2022-07-24 03:42:21
minetest-mod-protector/-2022-07-24 03:42:21
metis/-2022-07-24 03:42:21
mh-book/-2022-07-24 03:42:21
missfits/-2022-07-24 03:42:21
metamonger/-2022-07-24 03:42:21
mate-dock-applet/-2022-07-24 03:42:22
mate-backgrounds/-2022-07-24 03:42:22
maildirsync/-2022-07-24 03:42:22
matchbox-desktop/-2022-07-24 03:42:22
markupsafe/-2022-07-24 03:42:22
mailnag/-2022-07-24 03:42:22
mandelbulber2/-2022-07-24 03:42:22
mafft/-2022-07-24 03:42:22
madness/-2022-07-24 03:42:22
mate-common/-2022-07-24 03:42:22
macopix/-2022-07-24 03:42:22
magic/-2022-07-24 03:42:22
mate-indicator-applet/-2022-07-24 03:42:22
matchbox-panel-manager/-2022-07-24 03:42:22
mapsembler2/-2022-07-24 03:42:22
mapivi/-2022-07-24 03:42:22
makefile2graph/-2022-07-24 03:42:22
mate-icon-theme/-2022-07-24 03:42:22
mate-desktop-environment/-2022-07-24 03:42:22
mate-calc/-2022-07-24 03:42:22
mac-robber/-2022-07-24 03:42:22
mariadb-connector-odbc/-2022-07-24 03:42:22
make-dfsg/-2022-07-24 03:42:22
manpages-es-extra/-2022-07-24 03:42:22
mahimahi/-2022-07-24 03:42:22
magit-annex/-2022-07-24 03:42:22
magics-python/-2022-07-24 03:42:22
manpages-hu/-2022-07-24 03:42:22
mailcheck/-2022-07-24 06:04:28
maildrop/-2022-07-24 18:33:50
mupen64plus-qt/-2022-07-29 05:34:12
mxml/-2022-07-29 18:18:44
mu-cade/-2022-08-03 18:13:55
myspell-lv/-2022-08-03 23:54:38
meshsdfilter/-2022-08-04 15:59:51
mod-wsgi/-2022-08-05 18:33:03
megadepth/-2022-08-08 06:33:28
mothur/-2022-08-08 06:33:28
medialibrary/-2022-08-11 18:33:38
mapbox-variant/-2022-08-14 17:19:07
mrboom/-2022-08-16 19:13:57
musescore3/-2022-08-17 00:41:26
md2term/-2022-08-19 18:24:14
mediathekview/-2022-08-22 00:04:40
mp3check/-2022-08-22 11:50:08
mozilla-devscripts/-2022-08-22 23:34:25
makepatch/-2022-08-25 23:54:18
matrix-mirage/-2022-09-17 00:37:01
mozjs91/-2022-09-17 22:11:34
mako/-2022-09-21 11:58:25
minc-tools/-2022-09-23 00:42:04
mdk4/-2022-10-19 06:04:08
mdk3/-2022-10-19 06:04:09
micropython-mpremote/-2022-10-19 23:14:51
mcollective/-2022-11-06 04:33:49
mwoauth/-2022-11-06 04:33:49
maven-reporting-api/-2022-11-06 04:33:50
matrix-sydent/-2022-11-06 04:33:51
maven-plugin-testing/-2022-11-06 04:33:52
mailman-suite/-2022-11-06 04:34:16
mtpolicyd/-2022-11-06 05:40:41
mp3burn/-2022-11-06 05:40:42
mom/-2022-11-06 05:40:42
move-text-el/-2022-11-06 05:40:43
mkautodoc/-2022-11-06 05:40:50
minidb/-2022-11-06 05:40:52
minetest-mod-infinite-chest/-2022-11-06 05:40:54
minetest-mod-skyblock/-2022-11-06 05:40:55
metabat/-2022-11-06 05:40:55
minetest-mod-maidroid/-2022-11-06 07:54:46
madlib/-2022-11-06 19:08:06
magicrescue/-2022-11-06 19:08:08
musescore-sftools/-2022-11-06 19:44:14
mdetect/-2022-11-06 19:44:14
muroar/-2022-11-06 19:44:15
muroard/-2022-11-06 19:44:16
mergerfs/-2022-11-06 20:04:02
miniasm/-2022-11-06 20:34:04
mgt/-2022-11-06 20:34:04
minetest-mod-basic-robot-csm/-2022-11-06 22:49:46
mctc-lib/-2022-11-07 16:39:18
minisapserver/-2022-11-07 18:59:32
mesaflash/-2022-11-07 18:59:33
midish/-2022-11-07 18:59:33
mgdiff/-2022-11-08 06:16:58
minetest-mod-character-creator/-2022-11-09 05:29:23
mozo/-2022-11-10 17:39:19
mpd-sima/-2022-11-10 18:31:40
mod-dnssd/-2022-11-12 06:35:19
mstch/-2022-11-12 23:43:59
mod-mime-xattr/-2022-11-13 12:04:09
mp3roaster/-2022-11-14 23:25:15
muttprofile/-2022-11-14 23:25:16
mpdris2/-2022-11-15 12:32:44
mutrace/-2022-11-17 06:38:26
mcl/-2022-11-17 18:33:22
masqmail/-2022-11-18 12:04:35
macaulay2-jupyter-kernel/-2022-11-19 09:54:42
maven-archiver/-2022-11-19 12:30:27
mb2md/-2022-11-21 17:40:13
modernizr/-2022-11-22 18:20:34
membernator/-2022-11-22 23:39:42
mapdamage/-2022-11-24 17:34:24
minetest-mod-advmarkers-csm/-2022-11-26 12:31:51
mednafen/-2022-11-28 20:27:28
matplotlib-inline/-2022-11-29 12:33:21
minetest-mod-meshport/-2022-11-30 18:33:03
mkgmapgui/-2022-12-01 17:54:39
mapcode/-2022-12-01 18:25:13
maqview/-2022-12-02 06:31:27
mpqc/-2022-12-03 15:13:52
mapnik-reference/-2022-12-04 11:44:08
mummer/-2022-12-04 18:14:19
markdown/-2022-12-04 18:31:51
mediawiki-extension-youtube/-2022-12-05 05:39:37
mediawiki-skin-greystuff/-2022-12-05 05:39:37
mediawiki-extension-codemirror/-2022-12-05 05:39:38
matlab2tikz/-2022-12-06 00:22:44
multimail/-2022-12-06 00:23:32
manpages-zh/-2022-12-11 06:40:11
minitube/-2022-12-15 00:33:56
mpb/-2022-12-15 06:24:02
maven-parent/-2022-12-15 17:44:34
mod-vhost-ldap/-2022-12-15 21:14:22
maven-filtering/-2022-12-16 06:29:51
maven-resources-plugin/-2022-12-16 17:44:08
makepasswd/-2022-12-19 00:32:21
multiplex/-2022-12-20 05:57:20
modem-cmd/-2022-12-20 11:29:02
memtester/-2022-12-22 00:24:29
massxpert/-2022-12-22 06:35:37
mtree-netbsd/-2022-12-22 12:33:29
mustang/-2022-12-26 07:34:23
monitorix/-2022-12-28 06:33:39
mytop/-2022-12-31 00:36:03
mupen64plus-video-z64/-2023-01-02 12:32:25
mupen64plus-rsp-hle/-2023-01-02 12:32:25
mupen64plus-video-glide64/-2023-01-02 12:32:25
mupen64plus-video-rice/-2023-01-02 12:32:25
mupen64plus-rsp-z64/-2023-01-02 12:32:25
mupen64plus-ui-console/-2023-01-02 12:32:25
mupen64plus-audio-sdl/-2023-01-02 12:32:25
mupen64plus/-2023-01-02 12:32:25
mupen64plus-video-arachnoid/-2023-01-02 12:32:25
mk-configure/-2023-01-03 00:38:08
mlv/-2023-01-03 00:44:20
mlucas/-2023-01-04 12:34:27
mangler/-2023-01-05 19:29:07
madbomber/-2023-01-06 00:01:26
muparserx/-2023-01-06 08:25:24
mpv.el/-2023-01-06 18:31:50
misspell-fixer/-2023-01-07 05:59:38
mhc/-2023-01-07 17:29:12
mu-cite/-2023-01-07 23:29:13
mcollective-plugins/-2023-01-09 23:09:41
maven-invoker/-2023-01-09 23:34:56
maven-dependency-analyzer/-2023-01-09 23:34:56
maven-common-artifact-filters/-2023-01-09 23:34:58
maven-dependency-tree/-2023-01-09 23:34:59
maven-reporting-exec/-2023-01-09 23:34:59
meterec/-2023-01-10 00:53:57
maven-dependency-plugin/-2023-01-10 05:39:54
maven-script-interpreter/-2023-01-10 05:39:54
mew/-2023-01-10 12:35:25
maven-invoker-plugin/-2023-01-10 23:29:31
maven-shared-io/-2023-01-10 23:29:32
maven-scm/-2023-01-11 00:25:04
manpages-pt/-2023-01-11 05:50:21
maven-antrun-plugin/-2023-01-11 17:29:22
maven-assembly-plugin/-2023-01-12 17:44:52
maven-enforcer/-2023-01-12 23:49:48
maven-processor-plugin/-2023-01-12 23:49:48
maven-reporting-impl/-2023-01-13 18:33:16
maven-shade-plugin/-2023-01-14 00:34:26
maven-site-plugin/-2023-01-14 00:34:26
maven-compiler-plugin/-2023-01-15 00:32:57
maven-doxia-tools/-2023-01-15 12:04:04
mathomatic/-2023-01-16 06:31:00
manpages-ja/-2023-01-16 17:44:50
maven-source-plugin/-2023-01-17 00:33:37
maven-war-plugin/-2023-01-17 00:33:37
maven-clean-plugin/-2023-01-17 00:33:37
maven-ejb-plugin/-2023-01-17 00:33:37
maven-jar-plugin/-2023-01-17 06:36:45
mysql-defaults/-2023-01-17 11:39:24
mypy-protobuf/-2023-01-18 11:44:05
mustache.js/-2023-01-20 18:34:14
mriconvert/-2023-01-22 12:34:19
mimepull/-2023-01-25 00:03:13
muchsync/-2023-01-25 06:00:55
monitoring-plugins-check-logfiles/-2023-01-25 06:37:46
magic-wormhole-mailbox-server/-2023-01-27 06:35:12
mew-beta/-2023-01-27 06:38:51
mailmanclient/-2023-01-29 17:49:31
manpages-tr/-2023-01-30 00:37:04
mvdsv/-2023-01-30 06:35:57
mikutter/-2023-01-30 12:33:02
mini-dinstall/-2023-01-30 17:39:52
maven-mapping/-2023-01-31 17:34:49
maven-remote-resources-plugin/-2023-01-31 17:34:50
maven-plugin-tools/-2023-02-02 00:38:16
minidjvu/-2023-02-04 13:38:35
mpdtoys/-2023-02-05 00:55:15
medley-clojure/-2023-02-05 00:55:15
mobian-keyring/-2023-02-05 04:09:37
mupen64plus-core/-2023-02-06 12:35:49
mupen64plus-input-sdl/-2023-02-06 12:35:49
mftrace/-2023-02-06 18:44:52
make-dynpart-mappings/-2023-02-07 00:40:07
mercurial-evolve/-2023-02-07 20:49:13
morse-simulator/-2023-02-08 00:37:03
mdnsd/-2023-02-08 12:35:47
mmc-utils/-2023-02-09 00:36:00
minetest-mod-pycraft/-2023-02-13 11:49:17
moosefs/-2023-02-16 05:19:20
maxima/-2023-02-16 06:36:13
mercurial-buildpackage/-2023-02-16 06:36:13
minisign/-2023-02-18 06:36:02
microsocks/-2023-02-19 18:33:32
msxpertsuite/-2023-03-05 00:36:54
mini-iso-tools/-2023-03-07 19:30:58
moonshot-gss-eap/-2023-03-17 03:59:19
mpdecimal/-2023-04-05 01:31:01
maven-ant-helper/-2023-05-02 01:52:18
magic-wormhole/-2023-05-02 01:52:18
mitmproxy/-2023-05-02 02:50:34
mopidy-soundcloud/-2023-05-02 02:50:34
mdbtools/-2023-05-02 11:04:18
megatools/-2023-05-02 11:19:14
mt-st/-2023-05-02 12:01:47
mate-equake-applet/-2023-05-09 00:24:08
matomo-component-network/-2023-05-09 13:04:52
matomo-component-ini/-2023-05-09 13:04:52
mysql-5.7/-2023-05-09 18:28:24
mit-scheme/-2023-05-16 14:54:56
mps-youtube/-2023-05-18 06:32:42
mcpl/-2023-05-21 11:39:03
mlterm/-2023-06-04 14:24:01
mboxgrep/-2023-06-07 06:33:50
miniramfs/-2023-06-12 18:47:57
maven-deploy-plugin/-2023-06-12 18:47:58
mm3d/-2023-06-12 21:00:03
myspell.pt/-2023-06-13 00:16:49
maven-debian-helper/-2023-06-14 00:28:51
mygui/-2023-06-14 06:33:55
mousepad/-2023-06-17 00:28:52
maven-verifier/-2023-06-17 18:26:58
maven-install-plugin/-2023-06-17 23:34:34
matlab-support/-2023-06-17 23:34:36
mle/-2023-06-18 17:59:56
mate-power-manager/-2023-06-18 18:34:08
muon-meson/-2023-06-19 05:59:57
mailto/-2023-06-20 05:59:30
mdit-py-plugins/-2023-06-20 23:39:52
mac-fdisk/-2023-06-23 03:39:18
mate-themes/-2023-06-26 18:19:40
matrix-synapse-ldap3/-2023-06-29 17:34:22
most/-2023-07-01 06:49:38
mate-control-center/-2023-07-01 16:04:01
markdown-toc-el/-2023-07-02 05:24:19
mail-expire/-2023-07-02 12:27:40
morris/-2023-07-03 00:49:01
memo/-2023-07-05 02:39:16
mesa-amber/-2023-07-07 21:59:10
mkalias/-2023-07-08 05:49:46
magnum-cluster-api/-2023-07-09 07:09:13
manderlbot/-2023-07-10 12:00:11
mcstrans/-2023-07-10 23:59:41
mobile-tweaks/-2023-07-20 06:33:17
mythtv-status/-2023-07-23 05:44:56
mirrormagic/-2023-07-23 18:13:55
menu/-2023-07-25 10:36:00
module-assistant/-2023-07-26 09:58:42
matthiasmullie-minify/-2023-07-29 08:16:04
magit/-2023-07-29 17:29:22
msopenh264/-2023-07-30 17:45:14
maven-javadoc-plugin/-2023-08-01 05:54:33
mtpaint/-2023-08-02 18:30:23
mrename/-2023-08-03 05:29:22
movit/-2023-08-03 12:37:46
mtools/-2023-08-03 17:59:55
mkdocs-autorefs/-2023-08-06 18:28:15
monitoring-plugins/-2023-08-11 06:34:01
mate-polkit/-2023-08-13 00:27:15
mccs/-2023-08-14 15:23:58
mrc/-2023-08-15 16:48:57
magicgui/-2023-08-17 00:29:13
makexvpics/-2023-08-17 12:28:55
mathtex/-2023-08-17 12:28:55
modem-manager-gui/-2023-08-19 00:44:39
meta-ocaml/-2023-08-20 09:49:15
marco/-2023-08-22 00:28:44
mistral-tempest-plugin/-2023-08-24 00:30:52
magpie/-2023-08-24 18:36:03
m2300w/-2023-08-25 14:41:28
min12xxw/-2023-08-25 14:41:28
mscompress/-2023-08-25 18:14:09
mbuffer/-2023-08-27 18:37:47
mrtrix3/-2023-08-27 18:37:47
manaplus/-2023-08-27 18:37:47
m17n-lib/-2023-08-30 12:51:46
meta-unison/-2023-09-04 08:10:25
murrine-themes/-2023-09-08 14:44:24
ms-gsl/-2023-09-09 12:35:07
mako-notifier/-2023-09-10 06:35:48
mate-applets/-2023-09-10 19:59:01
mate-terminal/-2023-09-10 22:54:11
mate-panel/-2023-09-11 00:18:55
mdurl/-2023-09-13 01:59:05
modsecurity-apache/-2023-09-14 13:09:14
mkchromecast/-2023-09-18 17:04:34
mate-utils/-2023-09-25 22:49:15
mate-notification-daemon/-2023-09-26 12:20:25
mate-user-guide/-2023-09-27 00:39:05
mate-session-manager/-2023-09-27 00:39:05
mate-desktop/-2023-09-27 12:40:10
mozjs115/-2023-09-29 14:28:21
mailman3/-2023-09-29 23:19:10
mfem/-2023-10-08 00:34:37
mozjs102/-2023-10-10 00:49:12
mtr/-2023-10-26 19:52:04
muse-el/-2023-10-26 22:11:59
msgpack-java/-2023-10-26 22:12:00
mono-tools/-2023-10-26 22:12:03
mrb/-2023-10-26 22:12:03
mpfrc++/-2023-10-26 22:12:04
mochiweb/-2023-10-26 22:12:05
mp3report/-2023-10-26 22:12:05
modsecurity-crs/-2023-10-26 22:12:06
mmm-mode/-2023-10-26 22:12:06
mkdocs-literate-nav/-2023-10-26 22:12:07
mkdocs-nature/-2023-10-26 22:12:07
mkdocs-click/-2023-10-26 22:12:07
mha4mysql-node/-2023-10-26 22:12:09
medicalterms/-2023-10-26 22:12:11
mha4mysql-manager/-2023-10-26 22:12:11
mailmindr/-2023-10-26 22:12:18
magit-todos/-2023-10-26 22:12:18
mailsync/-2023-10-28 18:16:00
mah-jong/-2023-10-28 18:16:00
meterbridge/-2023-10-28 18:39:49
meteo-qt/-2023-10-28 18:39:50
metomi-isodatetime/-2023-10-28 18:39:50
microcom/-2023-10-28 18:39:50
memlockd/-2023-10-28 18:39:51
mdm/-2023-10-28 18:39:51
mbw/-2023-10-28 18:39:52
mcp-plugins/-2023-10-28 18:39:52
multimon-ng/-2023-10-28 19:49:36
mp3splt/-2023-10-28 19:49:37
msitools/-2023-10-28 19:49:37
mpdcon.app/-2023-10-28 19:49:38
mmh/-2023-10-28 19:49:38
mrtg/-2023-10-28 19:49:38
mpegdemux/-2023-10-28 19:49:39
mp3info/-2023-10-28 19:49:39
muse/-2023-10-28 22:25:15
mts-esp/-2023-10-29 07:26:27
mhz/-2023-10-29 07:26:27
mda-lv2/-2023-10-30 02:24:34
mediascanner2/-2023-10-30 02:24:34
milter-greylist/-2023-10-30 06:44:15
mcomix/-2023-10-31 00:41:43
med-fichier/-2023-11-02 06:46:36
mlgmp/-2023-11-02 07:35:28
minimap2/-2023-11-02 12:17:25
mlpcap/-2023-11-02 17:01:15
mysql-ocaml/-2023-11-02 17:01:16
mkgmap/-2023-11-03 06:49:14
mymake/-2023-11-03 17:51:19
megahit/-2023-11-04 23:40:25
magnus/-2023-11-06 00:09:47
mate-menu/-2023-11-06 00:09:48
meshoptimizer/-2023-11-07 07:06:48
mpi-defaults/-2023-11-07 07:06:48
mecat2/-2023-11-08 05:56:28
mastodon-el/-2023-11-08 05:56:30
musl/-2023-11-12 18:33:10
mimeo/-2023-11-14 14:46:08
minetest-mod-colour-chat-56-csm/-2023-11-15 05:26:54
mighttpd2/-2023-11-15 07:41:57
mscgen/-2023-11-15 13:20:53
mtink/-2023-11-16 06:10:37
mpl-animators/-2023-11-18 17:25:05
mjpegtools/-2023-11-21 06:14:58
magit-popup/-2023-11-21 17:32:02
midge/-2023-11-22 17:35:08
mvel/-2023-11-23 11:44:32
mp3guessenc/-2023-11-26 23:45:00
mingetty/-2023-11-27 11:51:50
mdds/-2023-11-28 00:09:38
milkytracker/-2023-12-01 00:01:16
maven-shared-incremental/-2023-12-02 17:31:48
megan-ce/-2023-12-03 17:56:48
malt/-2023-12-03 17:56:48
mosdepth/-2023-12-06 05:53:07
microsoft-authentication-extensions-for-python/-2023-12-11 17:23:15
mpsolve/-2023-12-11 18:16:10
mistune/-2023-12-12 23:28:27
maskprocessor/-2023-12-13 00:17:54
minimap/-2023-12-13 10:23:15
metaconfig/-2023-12-14 17:37:37
mpl-sphinx-theme/-2023-12-17 06:07:45
mpdscribble/-2023-12-17 06:07:50
muscle3/-2023-12-18 00:28:51
minia/-2023-12-18 18:46:15
memtailor/-2023-12-19 14:02:07
mp3diags/-2023-12-19 15:13:26
mupen64plus-video-glide64mk2/-2023-12-19 16:25:42
makeself/-2023-12-20 00:12:59
maffilter/-2023-12-20 06:31:17
mongo-cxx-driver-legacy/-2023-12-20 07:31:53
mbpoll/-2023-12-21 05:46:52
mathic/-2023-12-21 21:30:19
mplcursors/-2023-12-22 17:27:01
magit-forge-el/-2023-12-24 17:27:01
mutt-vc-query/-2023-12-25 18:11:36
mate-tweak/-2023-12-26 17:17:07
mkdocs-gen-files/-2023-12-27 09:36:57
mate-submodules/-2023-12-27 17:46:53
mate-screensaver/-2023-12-27 23:51:39
mate-menus/-2023-12-30 18:16:35
moon-buggy/-2023-12-31 17:45:54
maria/-2023-12-31 17:45:54
minizinc-ide/-2024-01-02 00:12:17
mumble/-2024-01-03 14:57:55
mpc/-2024-01-05 05:45:17
massxpert2/-2024-01-06 03:19:50
mate-settings-daemon/-2024-01-06 12:14:56
mate-media/-2024-01-06 18:10:32
mailman-hyperkitty/-2024-01-09 05:45:20
mbpfan/-2024-01-09 12:05:49
metaeuk/-2024-01-10 10:40:05
mf2py/-2024-01-10 13:26:02
munge/-2024-01-10 13:26:02
minilla/-2024-01-10 19:14:18
mgcv/-2024-01-10 19:14:18
murano-tempest-plugin/-2024-01-10 19:14:18
murasaki/-2024-01-10 19:14:18
mando/-2024-01-10 19:14:18
musicbrainzngs/-2024-01-10 19:14:18
mruby/-2024-01-10 19:14:18
milksnake/-2024-01-10 19:14:18
maven-artifact-transfer/-2024-01-10 19:14:18
mutagen/-2024-01-10 19:14:18
microdc2/-2024-01-10 19:14:18
msp430mcu/-2024-01-10 19:14:18
metapixel/-2024-01-10 19:14:18
mylvmbackup/-2024-01-10 19:14:18
magnum-tempest-plugin/-2024-01-10 19:14:18
mingw-w64/-2024-01-10 19:14:18
mycli/-2024-01-10 19:14:18
mozjs78/-2024-01-10 19:14:18
mailgraph/-2024-01-10 19:14:18
monero/-2024-01-10 19:14:18
manila-tempest-plugin/-2024-01-10 19:14:18
mandos/-2024-01-10 19:14:18
meta-kde-telepathy/-2024-01-10 19:14:18
monit/-2024-01-10 19:14:18
munipack/-2024-01-10 19:14:18
minetestmapper/-2024-01-10 19:14:18
msktutil/-2024-01-10 19:14:18
macsyfinder/-2024-01-10 19:14:18
mariadb-mysql-kbs/-2024-01-10 19:14:18
muscle/-2024-01-10 19:14:18
mc/-2024-01-10 19:14:18
msort/-2024-01-10 19:14:18
mariadb-connector-java/-2024-01-11 01:10:37
music123/-2024-01-11 01:10:37
mockldap/-2024-01-11 01:10:37
milib/-2024-01-11 01:10:37
mkgmap-splitter/-2024-01-11 01:10:37
mpop/-2024-01-11 01:10:37
manuel/-2024-01-11 01:10:37
massif-visualizer/-2024-01-11 01:10:37
mnormt/-2024-01-11 01:10:37
memkind/-2024-01-11 01:10:37
moarvm/-2024-01-11 01:10:37
mwrap/-2024-01-11 01:10:37
malai/-2024-01-11 01:10:37
mumps/-2024-01-11 01:10:37
mosh/-2024-01-11 01:10:37
md-toc/-2024-01-11 01:10:37
mu-editor/-2024-01-11 01:10:37
merecat/-2024-01-11 01:10:37
mina2/-2024-01-11 01:10:37
mopidy/-2024-01-11 01:10:37
megapixels/-2024-01-11 01:10:37
mopidy-dleyna/-2024-01-11 01:10:37
minizinc/-2024-01-11 01:10:37
mat2/-2024-01-11 01:10:37
merkaartor/-2024-01-11 01:10:37
metview-python/-2024-01-11 01:10:37
monster-masher/-2024-01-11 01:10:37
mindthegap/-2024-01-11 01:10:37
mgitstatus/-2024-01-11 01:10:37
mate-user-admin/-2024-01-11 01:10:37
mailscripts/-2024-01-11 01:10:37
molmodel/-2024-01-11 01:10:37
macromoleculebuilder/-2024-01-11 01:10:37
mrtg-ping-probe/-2024-01-11 01:10:37
miniupnpd/-2024-01-11 06:00:07
mgba/-2024-01-11 07:31:00
mailfilter/-2024-01-11 07:31:00
monado/-2024-01-11 07:31:00
metalfinder/-2024-01-11 07:31:00
mia/-2024-01-11 07:31:00
metadata-cleaner/-2024-01-11 07:31:00
matplotlib/-2024-01-11 07:31:00
meep-openmpi/-2024-01-11 07:31:00
metakernel/-2024-01-11 07:31:00
masakari-dashboard/-2024-01-11 07:31:00
mkdocs-section-index/-2024-01-11 07:31:00
multcomp/-2024-01-11 07:31:00
magic-haskell/-2024-01-11 07:31:00
mosquitto/-2024-01-11 07:31:00
mrrescue/-2024-01-11 07:31:00
mg/-2024-01-11 07:31:00
myst-parser/-2024-01-11 07:31:00
msgpack-c/-2024-01-11 07:31:00
meep/-2024-01-11 07:31:00
mkdocs-redirects/-2024-01-11 07:31:00
msgpack-cxx/-2024-01-11 07:31:00
moc/-2024-01-11 07:31:00
markdown-it-py/-2024-01-11 07:31:00
myspell-pt-br/-2024-01-11 07:31:00
metaphlan2/-2024-01-11 07:31:00
maint-guide/-2024-01-11 07:31:00
mistral-dashboard/-2024-01-11 07:31:00
meep-mpi-default/-2024-01-11 07:31:00
mangohud/-2024-01-11 07:31:00
mimalloc/-2024-01-11 07:31:00
materia-kde/-2024-01-11 07:31:00
mimedefang/-2024-01-11 08:50:41
murano/-2024-01-11 13:23:26
mozc/-2024-01-11 13:23:26
metaphlan/-2024-01-11 13:23:27
moment-timezone.js/-2024-01-11 13:23:27
moka-icon-theme/-2024-01-11 13:23:27
meta-phosh/-2024-01-11 13:23:27
megaglest/-2024-01-11 13:23:27
missingh/-2024-01-11 13:23:27
mistral/-2024-01-11 19:18:22
moonshot-trust-router/-2024-01-11 19:18:22
muffin/-2024-01-11 19:18:22
murano-dashboard/-2024-01-11 19:18:22
mozillavpn/-2024-01-11 19:18:22
murano-agent/-2024-01-11 19:18:22
mediaconch/-2024-01-11 19:18:23
meta-gnome3/-2024-01-11 19:18:23
metacity/-2024-01-11 19:18:23
maliit-inputcontext-gtk/-2024-01-11 19:18:23
mate-hud/-2024-01-11 19:18:23
malcontent/-2024-01-11 19:18:23
madison-lite/-2024-01-11 23:44:39
mir/-2024-01-12 13:11:42
mplayer/-2024-01-12 13:11:42
mrgingham/-2024-01-13 01:09:11
mapclassify/-2024-01-13 01:09:11
mkdocstrings/-2024-01-13 01:09:11
mkdocs-material-extensions/-2024-01-13 01:09:11
mir-eval/-2024-01-13 01:09:11
mujs/-2024-01-13 01:09:11
mantis-xray/-2024-01-13 01:09:11
mvtnorm/-2024-01-13 01:09:11
mmlib/-2024-01-13 01:09:11
marginalia/-2024-01-13 01:09:11
meta-kde/-2024-01-13 01:09:11
mediawiki/-2024-01-13 01:09:11
mash/-2024-01-13 01:09:11
motion/-2024-01-13 01:09:11
mono/-2024-01-13 01:09:11
mkdocstrings-python-legacy/-2024-01-13 01:09:11
matekbd-keyboard-display/-2024-01-13 01:09:11
mwparserfromhell/-2024-01-13 07:20:27
mpv/-2024-01-13 07:20:28
mescc-tools/-2024-01-13 07:20:28
montage/-2024-01-13 07:20:28
minieigen/-2024-01-13 07:20:28
molly-guard/-2024-01-13 07:20:28
mes/-2024-01-13 07:20:28
memory-allocator/-2024-01-13 07:20:28
manimpango/-2024-01-13 07:20:28
maradns/-2024-01-13 07:20:28
mfgtools/-2024-01-13 07:20:28
meson-python/-2024-01-13 07:20:28
mrbuild/-2024-01-13 07:20:28
merkuro/-2024-01-13 07:20:28
mame/-2024-01-13 07:20:28
mmseqs2/-2024-01-13 07:20:28
mpi4py-fft/-2024-01-13 07:20:28
minetest/-2024-01-13 07:20:28
miniaudio/-2024-01-13 13:13:32
minimac4/-2024-01-13 13:13:32
maildir-utils/-2024-01-13 13:13:32
mold/-2024-01-13 13:13:32
mailfromd/-2024-01-13 19:07:47
mintpy/-2024-01-13 19:07:47
mercurial/-2024-01-13 19:07:47
mapsforge/-2024-01-13 19:07:47
m1n1/-2024-01-13 19:07:47
mm-common/-2024-01-14 01:04:04
mypy/-2024-01-14 01:04:04
minetest-mod-ltool/-2024-01-14 01:04:04
mapproxy/-2024-01-14 01:04:04
mkvtoolnix/-2024-01-14 01:04:04
mpd/-2024-01-14 01:04:04
mutt-wizard/-2024-01-14 01:04:04
mathcomp-abel/-2024-01-14 01:04:04
mapnik/-2024-01-14 01:04:04
manpages-l10n/-2024-01-14 01:04:04
microprofile/-2024-01-14 18:04:46
mrbayes/-2024-01-15 00:15:05
mdp/-2024-01-16 05:45:58
minicoredumper/-2024-01-16 07:01:36
mutter/-2024-01-16 12:59:57
markdown-exec/-2024-01-17 00:49:50
martchus-cpp-utilities/-2024-01-17 12:14:44
martchus-qtutilities/-2024-01-17 15:31:09
mricron/-2024-01-17 17:30:34
m2l-pyqt/-2024-01-17 18:56:16
martchus-qtforkawesome/-2024-01-17 19:04:59
m17n-docs/-2024-01-19 05:55:57
miniupnpc/-2024-01-19 20:58:01
mdtraj/-2024-01-20 00:51:11
mlt/-2024-01-20 01:26:09
music/-2024-01-20 10:49:46
mssql-django/-2024-01-20 11:30:28
m2crypto/-2024-01-20 12:50:33
mlpack/-2024-01-20 21:25:00
mayavi2/-2024-01-22 01:19:52
mlpy/-2024-01-22 12:45:26
mintstick/-2024-01-22 19:05:34
mujoco/-2024-01-22 19:36:06
manuskript/-2024-01-23 01:16:46
morty/-2024-01-23 07:14:08
mtail/-2024-01-23 07:14:08
mkcert/-2024-01-23 07:14:08
micro/-2024-01-23 07:14:08
mmark/-2024-01-23 07:14:08
minica/-2024-01-23 07:14:08
mockery/-2024-01-23 07:14:08
molly-brown/-2024-01-23 07:14:08
mender-client/-2024-01-23 07:14:09
mender-connect/-2024-01-23 07:14:09
madonctl/-2024-01-23 07:14:09
mender-cli/-2024-01-23 07:14:09
mkosi/-2024-01-23 18:57:41
mmv/-2024-01-24 07:11:00
magnum-ui/-2024-01-24 18:53:42
msc-generator/-2024-01-25 00:55:28
mpg123/-2024-01-25 07:01:40
magnum/-2024-01-25 07:01:41
macaulay2/-2024-01-25 12:55:08
mapcache/-2024-01-25 18:55:39
markdown-callouts/-2024-01-26 12:56:19
miller/-2024-01-26 18:55:05
mariadb-10.3/-2024-01-26 18:55:06
mariadb-10.6/-2024-01-26 18:55:06
minetest-mod-nether/-2024-01-27 00:57:41
makedev/-2024-01-27 05:24:51
minigalaxy/-2024-01-28 00:52:37
magicfilter/-2024-01-28 06:05:55
minidlna/-2024-01-30 07:04:46
mstflint/-2024-01-30 07:04:46
mbedtls/-2024-01-30 13:00:01
mypaint/-2024-01-31 00:45:19
mysql-8.0/-2024-01-31 18:53:59
mate-system-monitor/-2024-01-31 19:04:43
mimetic/-2024-02-02 06:21:47
matrix-synapse/-2024-02-02 07:09:55
mystic/-2024-02-02 08:12:07
morph-browser/-2024-02-02 17:36:14
mptcpd/-2024-02-02 18:57:28
modsecurity/-2024-02-02 18:57:28
man2html/-2024-02-03 12:55:49
mdns-reflector/-2024-02-03 12:55:49
masakari-monitors/-2024-02-03 13:25:06
mathlibtools/-2024-02-04 12:50:32
metpy/-2024-02-07 18:51:43
mksh/-2024-02-07 18:51:43
mirtop/-2024-02-07 18:51:43
mdanalysis/-2024-02-08 00:44:44
manila/-2024-02-08 10:25:27
manila-ui/-2024-02-08 12:25:12
msmtp/-2024-02-08 15:19:52
mirage/-2024-02-08 18:51:54
mathgl/-2024-02-09 12:48:36
multiprocess/-2024-02-12 12:48:38
minexpert2/-2024-02-15 12:29:22
mmllib/-2024-02-15 12:30:31
microbegps/-2024-02-15 12:30:36
maven/-2024-02-15 12:30:38
mail-spf-perl/-2024-02-15 12:30:59
mina/-2024-02-15 13:35:39
metview/-2024-02-15 13:37:53
magic-enum/-2024-02-15 14:47:57
multiqc/-2024-02-15 14:47:59
mautrix-python/-2024-02-15 14:47:59
mkdocs-macros-plugin/-2024-02-15 14:48:00
micropython/-2024-02-15 16:33:49
minissdpd/-2024-02-15 16:33:49
mesa-demos/-2024-02-15 16:33:50
mirrorbits/-2024-02-15 17:25:04
moreutils/-2024-02-15 17:25:04
minder/-2024-02-15 17:25:04
myproxy/-2024-02-15 18:29:57
minicom/-2024-02-16 01:53:18
menhir/-2024-02-16 01:53:23
mininet/-2024-02-16 06:49:11
mapserver/-2024-02-16 07:06:13
maliit-keyboard/-2024-02-16 11:13:36
mariadb/-2024-02-16 18:27:50
mint-y-icons/-2024-02-16 18:58:07
mysqltuner/-2024-02-16 18:58:07
meta-plasma-mobile/-2024-02-16 18:58:07
miniflux/-2024-02-16 18:58:07
mailutils/-2024-02-16 18:58:07
magics++/-2024-02-16 18:58:07
mopac/-2024-02-16 18:58:07
mini-buildd/-2024-02-16 18:58:07
mupdf/-2024-02-17 00:50:37
mlpost/-2024-02-17 02:12:43
morbig/-2024-02-17 03:37:16
monty/-2024-02-17 06:54:19
mira/-2024-02-17 06:54:19
morsmall/-2024-02-17 10:13:29
mrpt/-2024-02-17 12:44:08
msolve/-2024-02-17 12:44:08
maliit-framework/-2024-02-17 12:44:08
mediastreamer2/-2024-02-17 12:44:08
mathicgb/-2024-02-17 12:44:08
mrcal/-2024-02-17 18:41:06
msp430-libc/-2024-02-17 19:14:36
mirrorkit/-2024-02-17 19:15:25
mx44/-2024-02-17 19:15:27
mysql-sandbox/-2024-02-17 19:15:27
mi2svg/-2024-02-17 19:15:28
mod-mono/-2024-02-17 19:16:09
minimodem/-2024-02-17 20:02:28
memchan/-2024-02-17 20:02:28
mp3wrap/-2024-02-17 20:02:28
mactelnet/-2024-02-17 20:02:28
mpm-itk/-2024-02-17 20:02:28
morse2ascii/-2024-02-17 20:02:28
mysecureshell/-2024-02-17 20:41:45
mathcomp-finmap/-2024-02-18 04:38:00
mathcomp-bigenough/-2024-02-18 04:38:00
mathcomp-zify/-2024-02-18 04:38:00
members/-2024-02-18 06:15:19
mathcomp-real-closed/-2024-02-18 07:03:59
mathcomp-multinomials/-2024-02-18 07:04:00
mathcomp-algebra-tactics/-2024-02-18 07:04:00
mathcomp-analysis/-2024-02-18 12:02:07
marsshooter/-2024-02-18 19:32:41
metro-policy/-2024-02-19 02:16:45
mediainfo/-2024-02-19 12:42:57
mpich/-2024-02-19 12:42:57
meld/-2024-02-20 05:43:38
mbr/-2024-02-20 05:44:01
microsoft-authentication-library-for-python/-2024-02-20 06:49:28
mecab/-2024-02-20 06:49:28
munin/-2024-02-20 12:46:38
mini-httpd/-2024-02-20 12:46:38
marisa/-2024-02-20 16:57:24
modemmanager-qt/-2024-02-21 00:49:49
mesa/-2024-02-21 06:55:53
mshr/-2024-02-21 06:55:53
meson/-2024-02-21 18:48:16
mmsd-tng/-2024-02-22 06:54:50
mir-core/-2024-02-22 12:50:58
mustache-d/-2024-02-22 12:50:58
milou/-2024-02-22 18:49:38
metkit/-2024-02-23 12:51:32
mmdebstrap/-2024-02-23 12:51:32
mkdocs-material/-2024-02-23 18:49:56
mbox-importer/-2024-02-23 19:17:36
matomo-device-detector/-2024-02-23 23:33:29
matomo-referrer-spam-list/-2024-02-23 23:33:29
matomo-php-tracker/-2024-02-23 23:33:30
matomo-searchengine-and-social-list/-2024-02-23 23:33:30
markdownpart/-2024-02-24 00:59:59
minuet/-2024-02-24 00:59:59
mongo-c-driver/-2024-02-24 01:17:56
mediawiki2latex/-2024-02-24 01:17:57
mixxx/-2024-02-24 03:38:57
mkdocstrings-python-handlers/-2024-02-24 05:53:25
marble/-2024-02-24 07:03:04
modules/-2024-02-24 17:53:34
minisat2/-2024-02-24 18:50:39
mpi4py/-2024-02-24 18:50:39
macs/-2024-02-24 20:02:03